Time,TemperatureF,DewpointF,PressureIn,WindDirection,WindDirectionDegrees,WindSpeedMPH,WindSpeedGustMPH,Humidity,HourlyPrecipIn,Conditions,Clouds,dailyrainin,SoftwareType,DateUTC
2013-06-25 00:00:00,65.5,65.5,29.98,NW,315,0.0,-999.0,100,0.00,,,0.01,Wunderground v.1.15,2013-06-25 04:00:00,
2013-06-25 00:03:00,65.5,65.5,29.98,NW,324,0.0,0.0,100,0.00,,,0.00,Wunderground v.1.15,2013-06-25 04:03:00,
2013-06-25 00:05:00,65.5,65.5,29.98,NW,315,0.0,-999.0,100,0.00,,,0.01,Wunderground v.1.15,2013-06-25 04:05:00,
2013-06-25 00:07:00,65.5,66.0,29.98,NW,324,0.0,-999.0,100,-99.99,,,0.00,weatherlink.com 1.10,2013-06-25 04:07:00,
2013-06-25 00:08:00,65.5,65.5,29.98,NW,324,0.0,0.0,100,0.00,,,0.00,Wunderground v.1.15,2013-06-25 04:08:00,
2013-06-25 00:10:00,65.5,65.5,29.98,N/A,-737280,0.0,-999.0,100,0.00,,,0.01,Wunderground v.1.15,2013-06-25 04:10:00,
2013-06-25 00:13:00,65.5,65.5,29.97,NW,324,0.0,0.0,100,0.00,,,0.00,Wunderground v.1.15,2013-06-25 04:13:00,
2013-06-25 00:15:00,65.5,65.5,29.97,N/A,-737280,0.0,-999.0,100,0.00,,,0.01,Wunderground v.1.15,2013-06-25 04:15:00,
2013-06-25 00:18:00,65.5,65.5,29.97,NW,323,0.0,0.0,100,0.00,,,0.00,Wunderground v.1.15,2013-06-25 04:18:00,
2013-06-25 00:20:00,65.5,65.5,29.97,N/A,-737280,0.0,-999.0,100,0.00,,,0.01,Wunderground v.1.15,2013-06-25 04:20:00,
2013-06-25 00:23:00,65.5,65.5,29.97,NW,323,0.0,0.0,100,0.00,,,0.00,Wunderground v.1.15,2013-06-25 04:23:00,
2013-06-25 00:25:00,65.5,65.5,29.97,N/A,-737280,0.0,-999.0,100,0.00,,,0.01,Wunderground v.1.15,2013-06-25 04:25:00,
2013-06-25 00:28:00,65.5,65.5,29.98,NW,315,0.0,-999.0,100,0.00,,,0.01,Wunderground v.1.15,2013-06-25 04:28:00,
2013-06-25 00:30:00,65.5,65.5,29.98,NW,315,0.0,-999.0,100,0.00,,,0.01,Wunderground v.1.15,2013-06-25 04:30:00,
2013-06-25 00:33:00,65.5,65.5,29.98,NW,324,0.0,0.0,100,0.00,,,0.00,Wunderground v.1.15,2013-06-25 04:33:00,
2013-06-25 00:35:00,65.5,65.5,29.98,NW,315,0.0,-999.0,100,0.00,,,0.01,Wunderground v.1.15,2013-06-25 04:35:00,
2013-06-25 00:38:00,65.5,65.5,29.98,NW,324,0.0,0.0,100,0.00,,,0.00,Wunderground v.1.15,2013-06-25 04:38:00,
2013-06-25 00:40:00,65.5,65.5,29.98,N/A,-737280,0.0,-999.0,100,0.00,,,0.01,Wunderground v.1.15,2013-06-25 04:40:00,
2013-06-25 00:43:00,65.5,65.5,29.97,NW,324,0.0,0.0,100,0.00,,,0.00,Wunderground v.1.15,2013-06-25 04:43:00,
2013-06-25 00:45:00,65.5,65.5,29.97,NW,315,0.0,-999.0,100,0.00,,,0.01,Wunderground v.1.15,2013-06-25 04:45:00,
2013-06-25 00:48:00,65.6,65.6,29.97,N/A,-737280,0.0,-999.0,100,0.00,,,0.01,Wunderground v.1.15,2013-06-25 04:48:00,
2013-06-25 00:50:00,65.6,65.6,29.97,N/A,-737280,0.0,-999.0,100,0.00,,,0.01,Wunderground v.1.15,2013-06-25 04:50:00,
2013-06-25 00:52:00,65.5,66.0,29.96,NW,323,0.0,-999.0,100,-99.99,,,0.00,weatherlink.com 1.10,2013-06-25 04:52:00,
2013-06-25 00:53:00,65.5,65.5,29.96,NW,315,0.0,-999.0,100,0.00,,,0.01,Wunderground v.1.15,2013-06-25 04:53:00,
2013-06-25 00:55:00,65.5,65.5,29.96,NW,315,0.0,-999.0,100,0.00,,,0.01,Wunderground v.1.15,2013-06-25 04:55:00,
2013-06-25 00:58:00,65.5,65.5,29.96,NW,323,0.0,0.0,100,0.00,,,0.00,Wunderground v.1.15,2013-06-25 04:58:00,
2013-06-25 01:00:00,65.5,65.5,29.96,NW,315,0.0,-999.0,100,0.00,,,0.01,Wunderground v.1.15,2013-06-25 05:00:00,
2013-06-25 01:03:00,65.5,65.5,29.96,NW,323,0.0,0.0,100,0.00,,,0.00,Wunderground v.1.15,2013-06-25 05:03:00,
2013-06-25 01:05:00,65.5,65.5,29.96,NW,315,0.0,-999.0,100,0.00,,,0.01,Wunderground v.1.15,2013-06-25 05:05:00,
2013-06-25 01:08:00,65.6,65.6,29.95,NW,324,0.0,0.0,100,0.00,,,0.00,Wunderground v.1.15,2013-06-25 05:08:00,
2013-06-25 01:10:00,65.6,65.6,29.95,NW,315,0.0,-999.0,100,0.00,,,0.01,Wunderground v.1.15,2013-06-25 05:10:00,
2013-06-25 01:13:00,65.7,65.7,29.96,NW,324,0.0,0.0,100,0.00,,,0.00,Wunderground v.1.15,2013-06-25 05:13:00,
2013-06-25 01:15:00,65.7,65.7,29.95,NW,315,0.0,-999.0,100,0.00,,,0.01,Wunderground v.1.15,2013-06-25 05:15:00,
2013-06-25 01:18:00,65.7,65.7,29.96,NW,315,0.0,-999.0,100,0.00,,,0.01,Wunderground v.1.15,2013-06-25 05:18:00,
2013-06-25 01:20:00,65.7,65.7,29.96,NW,315,0.0,-999.0,100,0.00,,,0.01,Wunderground v.1.15,2013-06-25 05:20:00,
2013-06-25 01:22:00,65.7,66.0,29.95,NW,323,0.0,-999.0,100,-99.99,,,0.00,weatherlink.com 1.10,2013-06-25 05:22:00,
2013-06-25 01:23:00,65.7,65.7,29.96,NW,315,0.0,-999.0,100,0.00,,,0.01,Wunderground v.1.15,2013-06-25 05:23:00,
2013-06-25 01:25:00,65.7,65.7,29.96,NW,315,0.0,-999.0,100,0.00,,,0.01,Wunderground v.1.15,2013-06-25 05:25:00,
2013-06-25 01:28:00,65.7,65.7,29.95,NW,323,0.0,0.0,100,0.00,,,0.00,Wunderground v.1.15,2013-06-25 05:28:00,
2013-06-25 01:30:00,65.7,65.7,29.95,NW,315,0.0,-999.0,100,0.00,,,0.01,Wunderground v.1.15,2013-06-25 05:30:00,
2013-06-25 01:33:00,65.8,65.8,29.96,NW,315,0.0,-999.0,100,0.00,,,0.01,Wunderground v.1.15,2013-06-25 05:33:00,
2013-06-25 01:35:00,65.8,65.8,29.96,NW,315,0.0,-999.0,100,0.00,,,0.01,Wunderground v.1.15,2013-06-25 05:35:00,
2013-06-25 01:37:00,65.8,66.0,29.95,NW,323,0.0,-999.0,100,-99.99,,,0.00,weatherlink.com 1.10,2013-06-25 05:37:00,
2013-06-25 01:38:00,65.8,65.8,29.96,NW,315,0.0,-999.0,100,0.00,,,0.01,Wunderground v.1.15,2013-06-25 05:38:00,
2013-06-25 01:40:00,65.8,65.8,29.96,NW,315,0.0,-999.0,100,0.00,,,0.01,Wunderground v.1.15,2013-06-25 05:40:00,
2013-06-25 01:43:00,65.8,65.8,29.96,NW,324,0.0,0.0,100,0.00,,,0.00,Wunderground v.1.15,2013-06-25 05:43:00,
2013-06-25 01:45:00,65.8,65.8,29.95,N/A,-737280,0.0,-999.0,100,0.00,,,0.01,Wunderground v.1.15,2013-06-25 05:45:00,
2013-06-25 01:48:00,65.8,65.8,29.95,NW,323,0.0,0.0,100,0.00,,,0.00,Wunderground v.1.15,2013-06-25 05:48:00,
2013-06-25 01:50:00,65.8,65.8,29.95,NW,315,0.0,-999.0,100,0.00,,,0.01,Wunderground v.1.15,2013-06-25 05:50:00,
2013-06-25 01:53:00,65.8,65.8,29.95,NW,324,0.0,0.0,100,0.00,,,0.00,Wunderground v.1.15,2013-06-25 05:53:00,
2013-06-25 01:55:00,65.8,65.8,29.95,NW,315,0.0,-999.0,100,0.00,,,0.01,Wunderground v.1.15,2013-06-25 05:55:00,
2013-06-25 01:58:00,65.8,65.8,29.95,NW,315,0.0,-999.0,100,0.00,,,0.01,Wunderground v.1.15,2013-06-25 05:58:00,
2013-06-25 02:00:00,65.8,65.8,29.95,NW,315,0.0,-999.0,100,0.00,,,0.01,Wunderground v.1.15,2013-06-25 06:00:00,
2013-06-25 02:03:00,65.8,65.8,29.95,NW,323,0.0,0.0,100,0.00,,,0.00,Wunderground v.1.15,2013-06-25 06:03:00,
2013-06-25 02:05:00,65.8,65.8,29.95,NW,315,0.0,-999.0,100,0.00,,,0.01,Wunderground v.1.15,2013-06-25 06:05:00,
2013-06-25 02:08:00,65.7,65.7,29.95,NW,324,0.0,0.0,100,0.00,,,0.00,Wunderground v.1.15,2013-06-25 06:08:00,
2013-06-25 02:10:00,65.7,65.7,29.94,N/A,-737280,0.0,-999.0,100,0.01,,,0.01,Wunderground v.1.15,2013-06-25 06:10:00,
2013-06-25 02:13:00,65.7,65.7,29.94,NW,323,0.0,0.0,100,0.00,,,0.01,Wunderground v.1.15,2013-06-25 06:13:00,
2013-06-25 02:15:00,65.7,65.7,29.94,NW,315,0.0,-999.0,100,0.01,,,0.01,Wunderground v.1.15,2013-06-25 06:15:00,
2013-06-25 02:18:00,65.7,65.7,29.94,NW,324,0.0,0.0,100,0.00,,,0.01,Wunderground v.1.15,2013-06-25 06:18:00,
2013-06-25 02:20:00,65.7,65.7,29.94,N/A,-737280,0.0,-999.0,100,0.01,,,0.01,Wunderground v.1.15,2013-06-25 06:20:00,
2013-06-25 02:23:00,65.7,65.7,29.94,NW,323,0.0,0.0,100,0.00,,,0.01,Wunderground v.1.15,2013-06-25 06:23:00,
2013-06-25 02:25:00,65.7,65.7,29.94,N/A,-737280,0.0,-999.0,100,0.01,,,0.01,Wunderground v.1.15,2013-06-25 06:25:00,
2013-06-25 02:28:00,65.7,65.7,29.94,N/A,-737280,0.0,-999.0,100,0.01,,,0.01,Wunderground v.1.15,2013-06-25 06:28:00,
2013-06-25 02:30:00,65.7,65.7,29.94,N/A,-737280,0.0,-999.0,100,0.01,,,0.01,Wunderground v.1.15,2013-06-25 06:30:00,
2013-06-25 02:33:00,65.7,65.7,29.94,NW,324,0.0,0.0,100,0.00,,,0.01,Wunderground v.1.15,2013-06-25 06:33:00,
2013-06-25 02:35:00,65.7,65.7,29.94,N/A,-737280,0.0,-999.0,100,0.01,,,0.01,Wunderground v.1.15,2013-06-25 06:35:00,
2013-06-25 02:38:00,65.7,65.7,29.94,NW,324,0.0,0.0,100,0.00,,,0.01,Wunderground v.1.15,2013-06-25 06:38:00,
2013-06-25 02:40:00,65.7,65.7,29.94,N/A,-737280,0.0,-999.0,100,0.01,,,0.01,Wunderground v.1.15,2013-06-25 06:40:00,
2013-06-25 02:43:00,65.7,65.7,29.94,NW,324,0.0,0.0,100,0.00,,,0.01,Wunderground v.1.15,2013-06-25 06:43:00,
2013-06-25 02:45:00,65.7,65.7,29.94,N/A,-737280,0.0,-999.0,100,0.01,,,0.01,Wunderground v.1.15,2013-06-25 06:45:00,
2013-06-25 02:48:00,65.7,65.7,29.94,N/A,-737280,0.0,-999.0,100,0.01,,,0.01,Wunderground v.1.15,2013-06-25 06:48:00,
2013-06-25 02:50:00,65.7,65.7,29.94,N/A,-737280,0.0,-999.0,100,0.01,,,0.01,Wunderground v.1.15,2013-06-25 06:50:00,
2013-06-25 02:53:00,65.7,65.7,29.94,NW,324,0.0,0.0,100,0.00,,,0.01,Wunderground v.1.15,2013-06-25 06:53:00,
2013-06-25 02:55:00,65.7,65.7,29.94,N/A,-737280,0.0,-999.0,100,0.01,,,0.01,Wunderground v.1.15,2013-06-25 06:55:00,
2013-06-25 02:58:00,65.7,65.7,29.94,NW,324,0.0,0.0,100,0.00,,,0.01,Wunderground v.1.15,2013-06-25 06:58:00,
2013-06-25 03:00:00,65.7,65.7,29.94,N/A,-737280,0.0,-999.0,100,0.01,,,0.01,Wunderground v.1.15,2013-06-25 07:00:00,
2013-06-25 03:03:00,65.7,65.7,29.94,NW,324,0.0,0.0,100,0.00,,,0.01,Wunderground v.1.15,2013-06-25 07:03:00,
2013-06-25 03:05:00,65.7,65.7,29.94,N/A,-737280,0.0,-999.0,100,0.01,,,0.01,Wunderground v.1.15,2013-06-25 07:05:00,
2013-06-25 03:08:00,65.7,65.7,29.94,NW,324,0.0,0.0,100,0.00,,,0.01,Wunderground v.1.15,2013-06-25 07:08:00,
2013-06-25 03:10:00,65.7,65.7,29.94,N/A,-737280,0.0,-999.0,100,0.00,,,0.01,Wunderground v.1.15,2013-06-25 07:10:00,
2013-06-25 03:13:00,65.7,65.7,29.93,NW,323,0.0,0.0,100,0.00,,,0.01,Wunderground v.1.15,2013-06-25 07:13:00,
2013-06-25 03:15:00,65.7,65.7,29.93,N/A,-737280,0.0,-999.0,100,0.00,,,0.01,Wunderground v.1.15,2013-06-25 07:15:00,
2013-06-25 03:18:00,65.7,65.7,29.93,N/A,-737280,0.0,-999.0,100,0.00,,,0.01,Wunderground v.1.15,2013-06-25 07:18:00,
2013-06-25 03:20:00,65.7,65.7,29.93,N/A,-737280,0.0,-999.0,100,0.00,,,0.01,Wunderground v.1.15,2013-06-25 07:20:00,
2013-06-25 03:23:00,65.8,65.8,29.93,NW,324,0.0,0.0,100,0.00,,,0.01,Wunderground v.1.15,2013-06-25 07:23:00,
2013-06-25 03:28:00,65.8,65.8,29.93,NW,324,0.0,0.0,100,0.00,,,0.01,Wunderground v.1.15,2013-06-25 07:28:00,
2013-06-25 03:39:00,65.7,66.0,29.93,NW,324,0.0,-999.0,100,-99.99,,,0.01,weatherlink.com 1.10,2013-06-25 07:39:00,
2013-06-25 03:54:00,65.6,66.0,29.93,NW,323,0.0,-999.0,100,-99.99,,,0.01,weatherlink.com 1.10,2013-06-25 07:54:00,
2013-06-25 04:03:00,65.5,65.5,29.93,NW,323,0.0,0.0,100,0.00,,,0.01,Wunderground v.1.15,2013-06-25 08:03:00,
2013-06-25 04:09:00,65.4,65.0,29.93,NW,324,0.0,-999.0,100,-99.99,,,0.01,weatherlink.com 1.10,2013-06-25 08:09:00,
2013-06-25 04:24:00,65.2,65.0,29.93,NW,324,0.0,-999.0,100,-99.99,,,0.01,weatherlink.com 1.10,2013-06-25 08:24:00,
2013-06-25 04:39:00,65.0,65.0,29.94,NW,324,0.0,-999.0,100,-99.99,,,0.01,weatherlink.com 1.10,2013-06-25 08:39:00,
2013-06-25 04:54:00,64.9,65.0,29.93,NW,323,0.0,-999.0,100,-99.99,,,0.01,weatherlink.com 1.10,2013-06-25 08:54:00,
2013-06-25 05:09:00,65.0,65.0,29.93,NW,323,0.0,-999.0,100,-99.99,,,0.01,weatherlink.com 1.10,2013-06-25 09:09:00,
2013-06-25 05:24:00,65.1,65.0,29.93,NW,324,0.0,-999.0,100,-99.99,,,0.01,weatherlink.com 1.10,2013-06-25 09:24:00,
2013-06-25 05:39:00,65.0,65.0,29.93,NW,323,0.0,-999.0,100,-99.99,,,0.01,weatherlink.com 1.10,2013-06-25 09:39:00,
2013-06-25 05:54:00,65.0,65.0,29.93,NW,324,0.0,-999.0,100,-99.99,,,0.01,weatherlink.com 1.10,2013-06-25 09:54:00,
2013-06-25 06:09:00,65.0,65.0,29.93,NW,324,0.0,-999.0,100,-99.99,,,0.01,weatherlink.com 1.10,2013-06-25 10:09:00,
2013-06-25 06:24:00,65.2,65.0,29.93,NW,324,0.0,-999.0,100,-99.99,,,0.01,weatherlink.com 1.10,2013-06-25 10:24:00,
2013-06-25 06:39:00,65.6,66.0,29.93,NW,323,0.0,-999.0,100,-99.99,,,0.01,weatherlink.com 1.10,2013-06-25 10:39:00,
2013-06-25 06:54:00,66.1,66.0,29.93,NW,324,0.0,-999.0,100,-99.99,,,0.01,weatherlink.com 1.10,2013-06-25 10:54:00,
2013-06-25 07:09:00,66.5,67.0,29.93,NW,323,0.0,-999.0,100,-99.99,,,0.01,weatherlink.com 1.10,2013-06-25 11:09:00,
2013-06-25 07:24:00,67.1,67.0,29.93,NW,323,1.0,-999.0,100,-99.99,,,0.01,weatherlink.com 1.10,2013-06-25 11:24:00,
2013-06-25 07:39:00,67.7,68.0,29.93,NW,323,0.0,-999.0,100,-99.99,,,0.01,weatherlink.com 1.10,2013-06-25 11:39:00,
2013-06-25 07:54:00,68.5,69.0,29.92,NW,323,0.0,-999.0,100,-99.99,,,0.01,weatherlink.com 1.10,2013-06-25 11:54:00,
2013-06-25 08:09:00,69.5,70.0,29.92,NW,324,0.0,-999.0,100,-99.99,,,0.01,weatherlink.com 1.10,2013-06-25 12:09:00,
2013-06-25 08:24:00,71.0,71.0,29.92,NW,324,0.0,-999.0,100,-99.99,,,0.01,weatherlink.com 1.10,2013-06-25 12:24:00,
2013-06-25 08:39:00,72.8,73.0,29.93,NE,43,0.0,-999.0,100,-99.99,,,0.01,weatherlink.com 1.10,2013-06-25 12:39:00,
2013-06-25 08:54:00,74.6,73.0,29.93,NNW,339,0.0,-999.0,96,-99.99,,,0.01,weatherlink.com 1.10,2013-06-25 12:54:00,
2013-06-25 09:09:00,76.5,74.0,29.93,NNW,345,3.0,-999.0,92,-99.99,,,0.01,weatherlink.com 1.10,2013-06-25 13:09:00,
2013-06-25 09:24:00,78.1,74.0,29.92,WNW,300,0.0,-999.0,88,-99.99,,,0.01,weatherlink.com 1.10,2013-06-25 13:24:00,
2013-06-25 09:39:00,79.2,75.0,29.92,North,355,0.0,-999.0,87,-99.99,,,0.01,weatherlink.com 1.10,2013-06-25 13:39:00,
2013-06-25 09:54:00,80.1,75.0,29.92,North,11,0.0,-999.0,84,-99.99,,,0.01,weatherlink.com 1.10,2013-06-25 13:54:00,
2013-06-25 10:09:00,80.8,76.0,29.92,NNW,346,0.0,-999.0,84,-99.99,,,0.01,weatherlink.com 1.10,2013-06-25 14:09:00,
2013-06-25 10:24:00,81.8,76.0,29.92,NNE,22,0.0,-999.0,82,-99.99,,,0.01,weatherlink.com 1.10,2013-06-25 14:24:00,
2013-06-25 10:40:00,83.4,77.0,29.92,NNW,331,0.0,-999.0,81,-99.99,,,0.01,weatherlink.com 1.10,2013-06-25 14:40:00,
2013-06-25 10:55:00,84.1,77.0,29.92,North,360,0.0,-999.0,80,-99.99,,,0.01,weatherlink.com 1.10,2013-06-25 14:55:00,
2013-06-25 11:10:00,84.8,77.0,29.92,SSW,203,0.0,-999.0,76,-99.99,,,0.01,weatherlink.com 1.10,2013-06-25 15:10:00,
2013-06-25 11:25:00,86.4,78.0,29.92,NNW,335,0.0,-999.0,76,-99.99,,,0.01,weatherlink.com 1.10,2013-06-25 15:25:00,
2013-06-25 11:40:00,86.7,78.0,29.92,NNW,339,0.0,-999.0,75,-99.99,,,0.01,weatherlink.com 1.10,2013-06-25 15:40:00,
2013-06-25 11:55:00,87.1,79.0,29.92,NNW,330,0.0,-999.0,77,-99.99,,,0.01,weatherlink.com 1.10,2013-06-25 15:55:00,
2013-06-25 12:10:00,87.4,78.0,29.91,ENE,58,0.0,-999.0,74,-99.99,,,0.01,weatherlink.com 1.10,2013-06-25 16:10:00,
2013-06-25 12:25:00,88.2,78.0,29.90,NE,51,0.0,-999.0,72,-99.99,,,0.01,weatherlink.com 1.10,2013-06-25 16:25:00,
2013-06-25 12:40:00,88.6,79.0,29.90,NE,51,0.0,-999.0,72,-99.99,,,0.01,weatherlink.com 1.10,2013-06-25 16:40:00,
2013-06-25 12:55:00,88.7,78.0,29.89,NNE,20,0.0,-999.0,71,-99.99,,,0.01,weatherlink.com 1.10,2013-06-25 16:55:00,
2013-06-25 13:10:00,89.2,78.0,29.89,ENE,63,0.0,-999.0,70,-99.99,,,0.01,weatherlink.com 1.10,2013-06-25 17:10:00,
2013-06-25 13:25:00,89.1,76.0,29.88,North,11,1.0,-999.0,66,-99.99,,,0.01,weatherlink.com 1.10,2013-06-25 17:25:00,
2013-06-25 13:40:00,88.7,77.0,29.87,ESE,119,0.0,-999.0,68,-99.99,,,0.01,weatherlink.com 1.10,2013-06-25 17:40:00,
2013-06-25 13:55:00,88.3,77.0,29.87,NNE,26,4.0,-999.0,70,-99.99,,,0.01,weatherlink.com 1.10,2013-06-25 17:55:00,
2013-06-25 14:10:00,88.2,78.0,29.87,NNE,15,0.0,-999.0,71,-99.99,,,0.01,weatherlink.com 1.10,2013-06-25 18:10:00,
2013-06-25 14:25:00,87.4,78.0,29.86,NNE,15,0.0,-999.0,74,-99.99,,,0.01,weatherlink.com 1.10,2013-06-25 18:25:00,
2013-06-25 14:40:00,88.1,78.0,29.85,ENE,68,0.0,-999.0,71,-99.99,,,0.01,weatherlink.com 1.10,2013-06-25 18:40:00,
2013-06-25 14:55:00,88.3,77.0,29.84,SE,135,0.0,-999.0,70,-99.99,,,0.01,weatherlink.com 1.10,2013-06-25 18:55:00,
2013-06-25 15:10:00,88.7,78.0,29.84,WSW,240,0.0,-999.0,70,-99.99,,,0.01,weatherlink.com 1.10,2013-06-25 19:10:00,
2013-06-25 15:25:00,88.8,76.0,29.83,NNE,17,1.0,-999.0,67,-99.99,,,0.01,weatherlink.com 1.10,2013-06-25 19:25:00,
2013-06-25 15:40:00,88.6,77.0,29.82,ENE,76,1.0,-999.0,68,-99.99,,,0.01,weatherlink.com 1.10,2013-06-25 19:40:00,
2013-06-25 15:55:00,89.5,77.0,29.81,SSE,157,0.0,-999.0,66,-99.99,,,0.01,weatherlink.com 1.10,2013-06-25 19:55:00,
2013-06-25 16:10:00,88.9,76.0,29.81,ESE,121,1.0,-999.0,65,-99.99,,,0.01,weatherlink.com 1.10,2013-06-25 20:10:00,
2013-06-25 16:25:00,88.3,75.0,29.80,North,11,0.0,-999.0,65,-99.99,,,0.01,weatherlink.com 1.10,2013-06-25 20:25:00,
2013-06-25 16:40:00,87.2,75.0,29.80,WSW,240,1.0,-999.0,66,-99.99,,,0.01,weatherlink.com 1.10,2013-06-25 20:40:00,
2013-06-25 17:10:00,84.1,75.0,29.79,ENE,75,0.0,-999.0,73,-99.99,,,0.01,weatherlink.com 1.10,2013-06-25 21:10:00,
2013-06-25 17:25:00,84.3,76.0,29.79,ENE,72,0.0,-999.0,75,-99.99,,,0.01,weatherlink.com 1.10,2013-06-25 21:25:00,
2013-06-25 17:40:00,84.0,75.0,29.79,NNE,28,0.0,-999.0,74,-99.99,,,0.01,weatherlink.com 1.10,2013-06-25 21:40:00,
2013-06-25 17:55:00,84.1,75.0,29.80,North,5,0.0,-999.0,75,-99.99,,,0.01,weatherlink.com 1.10,2013-06-25 21:55:00,
2013-06-25 18:11:00,83.8,75.0,29.79,East,80,0.0,-999.0,74,-99.99,,,0.01,weatherlink.com 1.10,2013-06-25 22:11:00,
2013-06-25 18:41:00,83.6,75.0,29.78,North,5,0.0,-999.0,75,-99.99,,,0.01,weatherlink.com 1.10,2013-06-25 22:41:00,
2013-06-25 18:56:00,82.8,75.0,29.78,NNE,22,0.0,-999.0,76,-99.99,,,0.01,weatherlink.com 1.10,2013-06-25 22:56:00,
2013-06-25 19:11:00,81.8,74.0,29.78,West,271,0.0,-999.0,78,-99.99,,,0.01,weatherlink.com 1.10,2013-06-25 23:11:00,
2013-06-25 19:26:00,81.1,74.0,29.79,ESE,106,0.0,-999.0,78,-99.99,,,0.01,weatherlink.com 1.10,2013-06-25 23:26:00,
2013-06-25 19:33:00,80.9,73.4,29.78,ENE,74,0.0,0.0,78,0.00,,,0.01,Wunderground v.1.15,2013-06-25 23:33:00,
2013-06-25 19:38:00,80.7,73.6,29.78,ENE,74,0.0,0.0,79,0.00,,,0.01,Wunderground v.1.15,2013-06-25 23:38:00,
2013-06-25 19:48:00,80.5,73.8,29.78,ENE,74,0.0,0.0,80,0.00,,,0.01,Wunderground v.1.15,2013-06-25 23:48:00,
2013-06-25 19:53:00,80.4,73.7,29.78,ENE,74,0.0,0.0,80,0.00,,,0.01,Wunderground v.1.15,2013-06-25 23:53:00,
2013-06-25 19:58:00,80.1,73.4,29.78,ENE,74,0.0,0.0,80,0.00,,,0.01,Wunderground v.1.15,2013-06-25 23:58:00,
2013-06-25 20:08:00,79.6,73.3,29.78,ENE,74,0.0,0.0,81,0.00,,,0.01,Wunderground v.1.15,2013-06-26 00:08:00,
2013-06-25 20:13:00,79.4,73.1,29.78,ENE,74,0.0,0.0,81,0.00,,,0.01,Wunderground v.1.15,2013-06-26 00:13:00,
2013-06-25 20:18:00,79.2,72.9,29.78,ENE,74,0.0,0.0,81,0.00,,,0.01,Wunderground v.1.15,2013-06-26 00:18:00,
2013-06-25 20:26:00,78.7,73.0,29.78,ENE,74,0.0,-999.0,82,-99.99,,,0.01,weatherlink.com 1.10,2013-06-26 00:26:00,
2013-06-25 20:33:00,78.5,72.9,29.78,ENE,74,0.0,0.0,83,0.00,,,0.01,Wunderground v.1.15,2013-06-26 00:33:00,
2013-06-25 20:38:00,78.2,72.6,29.78,ENE,74,0.0,0.0,83,0.00,,,0.01,Wunderground v.1.15,2013-06-26 00:38:00,
2013-06-25 20:48:00,77.7,72.5,29.78,ENE,74,0.0,0.0,84,0.00,,,0.01,Wunderground v.1.15,2013-06-26 00:48:00,
2013-06-25 20:53:00,77.5,72.6,29.78,ENE,74,0.0,0.0,85,0.00,,,0.01,Wunderground v.1.15,2013-06-26 00:53:00,
2013-06-25 21:03:00,77.3,72.4,29.78,ENE,74,0.0,0.0,85,0.00,,,0.01,Wunderground v.1.15,2013-06-26 01:03:00,
2013-06-25 21:08:00,77.1,72.6,29.79,NE,36,0.0,0.0,86,0.00,,,0.01,Wunderground v.1.15,2013-06-26 01:08:00,
2013-06-25 21:13:00,77.0,72.5,29.79,NE,36,0.0,0.0,86,0.00,,,0.01,Wunderground v.1.15,2013-06-26 01:13:00,
2013-06-25 21:23:00,76.9,72.4,29.80,NE,37,0.0,0.0,86,0.00,,,0.01,Wunderground v.1.15,2013-06-26 01:23:00,
2013-06-25 21:28:00,76.8,72.3,29.79,NNW,345,0.0,0.0,86,0.00,,,0.01,Wunderground v.1.15,2013-06-26 01:28:00,
2013-06-25 21:33:00,76.8,72.3,29.79,NNE,14,0.0,0.0,86,0.00,,,0.01,Wunderground v.1.15,2013-06-26 01:33:00,
2013-06-25 21:38:00,76.8,72.3,29.80,East,96,0.0,0.0,86,0.00,,,0.01,Wunderground v.1.15,2013-06-26 01:38:00,
2013-06-25 21:48:00,76.9,72.0,29.80,NNE,18,0.0,0.0,85,0.00,,,0.01,Wunderground v.1.15,2013-06-26 01:48:00,
2013-06-25 21:57:00,77.1,72.0,29.80,West,275,0.0,-999.0,83,-99.99,,,0.01,weatherlink.com 1.10,2013-06-26 01:57:00,
2013-06-25 22:03:00,77.2,71.6,29.80,WNW,283,0.0,0.0,83,0.00,,,0.01,Wunderground v.1.15,2013-06-26 02:03:00,
2013-06-25 22:12:00,77.2,72.0,29.80,NW,314,0.0,-999.0,83,-99.99,,,0.01,weatherlink.com 1.10,2013-06-26 02:12:00,
2013-06-25 22:18:00,77.2,71.6,29.80,NW,316,0.0,0.0,83,0.00,,,0.01,Wunderground v.1.15,2013-06-26 02:18:00,
2013-06-25 22:27:00,77.1,72.0,29.80,NW,325,0.0,-999.0,83,-99.99,,,0.01,weatherlink.com 1.10,2013-06-26 02:27:00,
2013-06-25 22:33:00,77.1,71.2,29.81,North,350,0.0,0.0,82,0.00,,,0.01,Wunderground v.1.15,2013-06-26 02:33:00,
2013-06-25 22:42:00,76.9,71.0,29.81,NE,53,0.0,-999.0,83,-99.99,,,0.01,weatherlink.com 1.10,2013-06-26 02:42:00,
2013-06-25 22:48:00,76.7,71.1,29.81,North,350,0.0,0.0,83,0.00,,,0.01,Wunderground v.1.15,2013-06-26 02:48:00,
2013-06-25 22:53:00,76.6,71.0,29.81,North,350,0.0,0.0,83,0.00,,,0.01,Wunderground v.1.15,2013-06-26 02:53:00,
2013-06-25 22:58:00,76.6,71.0,29.80,North,350,0.0,0.0,83,0.00,,,0.01,Wunderground v.1.15,2013-06-26 02:58:00,
2013-06-25 23:08:00,76.4,71.2,29.80,NNW,346,0.0,0.0,84,0.00,,,0.01,Wunderground v.1.15,2013-06-26 03:08:00,
2013-06-25 23:13:00,76.2,71.4,29.80,NE,37,0.0,0.0,85,0.00,,,0.01,Wunderground v.1.15,2013-06-26 03:13:00,
2013-06-25 23:23:00,75.8,71.0,29.80,NE,37,0.0,0.0,85,0.00,,,0.01,Wunderground v.1.15,2013-06-26 03:23:00,
2013-06-25 23:28:00,75.7,70.9,29.80,NE,38,0.0,0.0,85,0.00,,,0.01,Wunderground v.1.15,2013-06-26 03:28:00,
2013-06-25 23:38:00,75.5,71.0,29.80,NE,37,0.0,0.0,86,0.00,,,0.01,Wunderground v.1.15,2013-06-26 03:38:00,
2013-06-25 23:43:00,75.4,70.6,29.79,NE,38,0.0,0.0,85,0.00,,,0.01,Wunderground v.1.15,2013-06-26 03:43:00,
2013-06-25 23:53:00,75.3,70.5,29.79,NE,37,0.0,0.0,85,0.00,,,0.01,Wunderground v.1.15,2013-06-26 03:53:00,
2013-06-25 23:58:00,75.3,70.5,29.80,NE,37,0.0,0.0,85,0.00,,,0.01,Wunderground v.1.15,2013-06-26 03:58:00,